Dumas, TX

10:40 PM CDT on May 25, 2017 (GMT -0500)
Moore County

Weather History for KDUX - January, 2012

Change the Weather History Date:

Wednesday, January 4, 2012

  Actual Average (KDHT) Record (KDHT)
Temperature  
Mean Temperature 44 °F -  
Max Temperature 57 °F 47 °F 76 °F (1956)
Min Temperature 32 °F 20 °F -21 °F (1959)
Degree Days  
Heating Degree Days 20    
Moisture  
Dew Point 27 °F    
Average Humidity 55    
Maximum Humidity 80    
Minimum Humidity 25    
Precipitation  
Precipitation 0.00 in - - ()
Sea Level Pressure  
Sea Level Pressure 30.38 in    
Wind  
Wind Speed 12 mph (NW)    
Max Wind Speed 21 mph    
Max Gust Speed 17 mph    
Visibility 10 miles    
Events      
Averages and records for this station are not official NWS values.
T = Trace of Precipitation, MM = Missing Value Source: NWS Daily Summary

Daily Weather History Graph

Daily Weather History Graph

Search for Another Location

Airport or City:

Trip Planner

Search our weather history database for the weather conditions in past years. The results will help you decide how hot, cold, wet, or windy it might be!

Date:

Astronomy

Jan. 04, 2012 Rise Set
Actual Time 7:58 AM CST 5:47 PM CST
Civil Twilight 7:30 AM CST 6:15 PM CST
Nautical Twilight 6:58 AM CST 6:47 PM CST
Astronomical Twilight 6:27 AM CST 7:18 PM CST
Moon 2:10 PM CST (1/4) 3:50 AM CST (1/4)
Length of Visible Light 10h 45m
Length of Day
9h 48m
Waxing Gibbous, 81% of the Moon is Illuminated
Jan 4
Waxing Gibbous
Jan 9
Full
Jan 16
Last Quarter
Jan 23
New
Jan 30
First Quarter

Hourly Weather History & Observations

Time (CST) Temp. Windchill Dew Point Humidity Pressure Visibility Wind Dir Wind Speed Gust Speed Precip Events Conditions
12:35 AM 37.4 °F 29.3 °F 28.4 °F 70% 30.24 in 10.0 mi NNW 12.7 mph - N/A   Clear
12:55 AM 37.4 °F 28.9 °F 28.4 °F 70% 30.26 in 10.0 mi North 13.8 mph - N/A   Clear
1:15 AM 37.4 °F 28.5 °F 28.4 °F 70% 30.25 in 10.0 mi NNW 15.0 mph - N/A   Clear
1:35 AM 39.2 °F 29.8 °F 28.4 °F 65% 30.26 in 10.0 mi North 18.4 mph - N/A   Clear
2:15 AM 41.0 °F 32.2 °F 28.4 °F 61% 30.27 in 10.0 mi North 18.4 mph - N/A   Clear
2:35 AM 41.0 °F 31.6 °F 28.4 °F 61% 30.29 in 10.0 mi NNW 20.7 mph - N/A   Clear
2:55 AM 41.0 °F 32.8 °F 28.4 °F 61% 30.30 in 10.0 mi North 16.1 mph - N/A   Clear
3:15 AM 39.2 °F 29.8 °F 28.4 °F 65% 30.31 in 10.0 mi North 18.4 mph - N/A   Clear
3:35 AM 39.2 °F 30.5 °F 28.4 °F 65% 30.31 in 10.0 mi North 16.1 mph - N/A   Clear
3:55 AM 37.4 °F 28.9 °F 28.4 °F 70% 30.32 in 10.0 mi North 13.8 mph - N/A   Clear
4:15 AM 37.4 °F 28.9 °F 28.4 °F 70% 30.33 in 10.0 mi North 13.8 mph - N/A   Clear
4:35 AM 37.4 °F 28.5 °F 28.4 °F 70% 30.34 in 10.0 mi North 15.0 mph - N/A   Clear
4:55 AM 37.4 °F 28.5 °F 28.4 °F 70% 30.35 in 10.0 mi North 15.0 mph - N/A   Clear
5:15 AM 35.6 °F 27.5 °F 28.4 °F 75% 30.35 in 10.0 mi NNW 11.5 mph - N/A   Clear
5:35 AM 33.8 °F 25.3 °F 26.6 °F 75% 30.36 in 10.0 mi NNW 11.5 mph - N/A   Clear
5:55 AM 33.8 °F 24.8 °F 26.6 °F 75% 30.37 in 10.0 mi North 12.7 mph - N/A   Clear
6:15 AM 33.8 °F 24.8 °F 26.6 °F 75% 30.38 in 10.0 mi North 12.7 mph - N/A   Clear
6:35 AM 33.8 °F 24.8 °F 26.6 °F 75% 30.39 in 10.0 mi NNW 12.7 mph - N/A   Clear
6:55 AM 33.8 °F 25.8 °F 26.6 °F 75% 30.40 in 10.0 mi NNW 10.4 mph - N/A   Clear
7:35 AM 32.0 °F 24.2 °F 26.6 °F 80% 30.42 in 10.0 mi NNW 9.2 mph - N/A   Clear
7:55 AM 32.0 °F 25.6 °F 26.6 °F 80% 30.43 in 10.0 mi NW 6.9 mph - N/A   Clear
8:15 AM 32.0 °F 25.6 °F 26.6 °F 80% 30.44 in 10.0 mi NW 6.9 mph - N/A   Clear
8:35 AM 33.8 °F 27.0 °F 26.6 °F 75% 30.45 in 10.0 mi NW 8.1 mph - N/A   Clear
8:55 AM 33.8 °F 28.6 °F 26.6 °F 75% 30.46 in 10.0 mi WNW 5.8 mph - N/A   Clear
9:15 AM 37.4 °F 31.4 °F 28.4 °F 70% 30.47 in 10.0 mi NW 8.1 mph - N/A   Clear
9:35 AM 41.0 °F 35.8 °F 28.4 °F 61% 30.48 in 10.0 mi NNW 8.1 mph - N/A   Clear
9:55 AM 42.8 °F 38.0 °F 28.4 °F 57% 30.48 in 10.0 mi NNW 8.1 mph - N/A   Clear
10:15 AM 44.6 °F 38.4 °F 26.6 °F 49% 30.49 in 10.0 mi North 12.7 mph - N/A   Clear
10:35 AM 46.4 °F 42.4 °F 26.6 °F 46% 30.49 in 10.0 mi North 8.1 mph - N/A   Clear
10:55 AM 48.2 °F - 26.6 °F 43% 30.49 in 10.0 mi North 10.4 mph 16.1 mph N/A   Clear
11:15 AM 50.0 °F - 26.6 °F 40% 30.48 in 10.0 mi North 9.2 mph 17.3 mph N/A   Clear
11:35 AM 50.0 °F - 26.6 °F 40% 30.47 in 10.0 mi North 9.2 mph 16.1 mph N/A   Clear
11:55 AM 51.8 °F - 24.8 °F 35% 30.46 in 10.0 mi North 10.4 mph - N/A   Clear
12:15 PM 51.8 °F - 26.6 °F 38% 30.44 in 10.0 mi NNW 9.2 mph - N/A   Clear
12:35 PM 53.6 °F - 26.6 °F 35% 30.43 in 10.0 mi NNW 9.2 mph - N/A   Clear
12:55 PM 53.6 °F - 26.6 °F 35% 30.42 in 10.0 mi NNW 8.1 mph - N/A   Clear
1:15 PM 53.6 °F - 24.8 °F 33% 30.42 in 10.0 mi NNW 9.2 mph - N/A   Clear
1:35 PM 53.6 °F - 24.8 °F 33% 30.40 in 10.0 mi Calm Calm - N/A   Clear
1:55 PM 55.4 °F - 24.8 °F 31% 30.40 in 10.0 mi West 4.6 mph - N/A   Clear
2:15 PM 55.4 °F - 21.2 °F 26% 30.39 in 10.0 mi NW 5.8 mph - N/A   Clear
2:35 PM 57.2 °F - 23.0 °F 27% 30.39 in 10.0 mi NNW 4.6 mph - N/A   Clear
2:55 PM 57.2 °F - 23.0 °F 27% 30.39 in 10.0 mi NW 4.6 mph - N/A   Clear
3:15 PM 57.2 °F - 23.0 °F 27% 30.38 in 10.0 mi NNW 5.8 mph - N/A   Clear
3:35 PM 57.2 °F - 21.2 °F 25% 30.38 in 10.0 mi NW 3.5 mph - N/A   Clear
3:55 PM 57.2 °F - 23.0 °F 27% 30.37 in 10.0 mi West 6.9 mph - N/A   Clear
4:15 PM 57.2 °F - 24.8 °F 29% 30.37 in 10.0 mi WSW 9.2 mph - N/A   Clear
4:35 PM 57.2 °F - 24.8 °F 29% 30.37 in 10.0 mi WSW 9.2 mph - N/A   Clear
4:55 PM 55.4 °F - 24.8 °F 31% 30.37 in 10.0 mi WSW 9.2 mph - N/A   Clear
5:15 PM 53.6 °F - 26.6 °F 35% 30.38 in 10.0 mi WSW 5.8 mph - N/A   Clear
5:35 PM 50.0 °F - 28.4 °F 43% 30.37 in 10.0 mi WSW 8.1 mph - N/A   Clear
5:55 PM 46.4 °F 41.9 °F 28.4 °F 50% 30.36 in 10.0 mi WSW 9.2 mph - N/A   Clear
6:15 PM 41.0 °F 34.7 °F 28.4 °F 61% 30.36 in 10.0 mi SW 10.4 mph - N/A   Clear
6:35 PM 39.2 °F 32.5 °F 28.4 °F 65% 30.35 in 10.0 mi SW 10.4 mph - N/A   Clear
6:55 PM 37.4 °F 29.3 °F 28.4 °F 70% 30.35 in 10.0 mi SW 12.7 mph - N/A   Clear
7:15 PM 39.2 °F 31.6 °F 28.4 °F 65% 30.34 in 10.0 mi SW 12.7 mph - N/A   Clear
7:35 PM 41.0 °F 34.3 °F 28.4 °F 61% 30.34 in 10.0 mi SW 11.5 mph - N/A   Clear
7:55 PM 39.2 °F 32.0 °F 26.6 °F 61% 30.34 in 10.0 mi SW 11.5 mph - N/A   Clear
8:15 PM 37.4 °F 30.3 °F 28.4 °F 70% 30.33 in 10.0 mi SW 10.4 mph - N/A   Clear
8:35 PM 37.4 °F 29.8 °F 26.6 °F 65% 30.33 in 10.0 mi SW 11.5 mph - N/A   Clear
8:55 PM 37.4 °F 29.8 °F 26.6 °F 65% 30.32 in 10.0 mi SW 11.5 mph - N/A   Clear
9:15 PM 37.4 °F 30.3 °F 26.6 °F 65% 30.33 in 10.0 mi WSW 10.4 mph - N/A   Clear
9:35 PM 35.6 °F 27.5 °F 26.6 °F 70% 30.33 in 10.0 mi SW 11.5 mph - N/A   Clear
9:55 PM 37.4 °F 29.3 °F 26.6 °F 65% 30.33 in 10.0 mi WSW 12.7 mph - N/A   Clear
10:15 PM 37.4 °F 29.3 °F 26.6 °F 65% 30.32 in 10.0 mi WSW 12.7 mph - N/A   Clear
10:35 PM 37.4 °F 29.8 °F 26.6 °F 65% 30.32 in 10.0 mi WSW 11.5 mph - N/A   Clear
10:55 PM 35.6 °F 27.5 °F 26.6 °F 70% 30.32 in 10.0 mi WSW 11.5 mph - N/A   Clear
11:15 PM 35.6 °F 28.0 °F 26.6 °F 70% 30.31 in 10.0 mi WSW 10.4 mph - N/A   Clear
11:35 PM 37.4 °F 28.9 °F 26.6 °F 65% 30.31 in 10.0 mi WSW 13.8 mph - N/A   Clear
11:55 PM 37.4 °F 29.3 °F 24.8 °F 60% 30.31 in 10.0 mi West 12.7 mph - N/A   Clear